Weather History for Montauk, NY

Change the Weather History Date:

Tuesday, January 15, 2013

  Actual Average (KHTO) Record (KHTO)
Temperature  
Mean Temperature 39 °F -  
Max Temperature 41 °F 36 °F - (-1)
Min Temperature 37 °F 21 °F - (-1)
Degree Days  
Heating Degree Days 26    
Moisture  
Dew Point 30 °F    
Average Humidity 71    
Maximum Humidity 86    
Minimum Humidity 62    
Precipitation  
Precipitation 0.16 in - - ()
Sea Level Pressure  
Sea Level Pressure 30.27 in    
Wind  
Wind Speed 6 mph (North)    
Max Wind Speed 8 mph    
Max Gust Speed -    
Averages and records for this station are not official NWS values.
T = Trace of Precipitation, MM = Missing Value Source: NWS Daily Summary

Daily Weather History Graph

Daily Weather History Graph

Search for Another Location

Airport:

Trip Planner

Search our weather history database for the weather conditions in past years. The results will help you decide how hot, cold, wet, or windy it might be!

Date:

Astronomy

Jan. 15, 2013 Rise Set
Actual Time 7:10 AM EST 4:44 PM EST
Civil Twilight 6:40 AM EST 5:14 PM EST
Nautical Twilight 6:06 AM EST 5:48 PM EST
Astronomical Twilight 5:33 AM EST 6:21 PM EST
Moon 9:12 AM EST (1/15) 9:33 PM EST (1/15)
Length of Visible Light 10h 34m
Length of Day
9h 33m
Waxing Crescent, 19% of the Moon is Illuminated
Jan 15
Waxing Crescent
Jan 18
First Quarter
Jan 26
Full
Feb 3
Last Quarter
Feb 10
New

Hourly Weather History & Observations

Time (EST) Temp. Windchill Dew Point Humidity Pressure Visibility Wind Dir Wind Speed Gust Speed Precip Events Conditions
12:54 AM 39.0 °F 33.4 °F 32.0 °F 76% 30.28 in - NNW 8.1 mph - 0.05 in   Unknown
1:54 AM 37.9 °F 32.7 °F 33.1 °F 83% 30.28 in - NNW 6.9 mph - 0.03 in   Unknown
2:54 AM 37.0 °F 32.4 °F 32.0 °F 82% 30.25 in - NNE 5.8 mph - 0.03 in   Unknown
4:54 AM 37.0 °F 31.0 °F 33.1 °F 86% 30.22 in - NNE 8.1 mph - 0.05 in   Unknown
6:54 AM 37.9 °F 34.4 °F 33.1 °F 83% 30.27 in - NNE 4.6 mph - N/A   Unknown
7:54 AM 39.0 °F 34.8 °F 32.0 °F 76% 30.30 in - North 5.8 mph - N/A   Unknown
9:54 AM 39.0 °F 34.0 °F 30.9 °F 73% 30.32 in - North 6.9 mph - N/A   Unknown
10:54 AM 39.0 °F 34.8 °F 30.0 °F 70% 30.30 in - North 5.8 mph - N/A   Unknown
11:54 AM 39.9 °F 35.8 °F 28.9 °F 65% 30.29 in - North 5.8 mph - N/A   Unknown
12:54 PM 39.9 °F 35.8 °F 30.0 °F 68% 30.28 in - NNW 5.8 mph - N/A   Unknown
1:54 PM 39.9 °F 36.7 °F 30.0 °F 68% 30.26 in - North 4.6 mph - N/A   Unknown
2:54 PM 39.9 °F 37.8 °F 30.0 °F 68% 30.27 in - Variable 3.5 mph - N/A   Unknown
3:54 PM 39.9 °F - 30.0 °F 68% 30.25 in - Calm Calm - N/A   Unknown
4:54 PM 39.9 °F 36.7 °F 30.0 °F 68% 30.28 in - NW 4.6 mph - N/A   Unknown
5:54 PM 41.0 °F 37.1 °F 28.9 °F 62% 30.28 in - NNW 5.8 mph - N/A   Unknown
6:54 PM 39.9 °F 36.7 °F 28.9 °F 65% 30.27 in - NNW 4.6 mph - N/A   Unknown
7:54 PM 39.9 °F 35.1 °F 28.0 °F 63% 30.27 in - North 6.9 mph - N/A   Unknown
8:54 PM 39.0 °F 34.8 °F 28.0 °F 65% 30.27 in - North 5.8 mph - N/A   Unknown
10:54 PM 39.0 °F 35.7 °F 27.0 °F 62% 30.24 in - NNE 4.6 mph - N/A   Unknown
11:54 PM 39.0 °F 35.7 °F 28.0 °F 65% 30.23 in - NE 4.6 mph - N/A   Unknown